Regional Weather Roundup
Issued by NWS

Home | Current Version | Previous Version | Graphics & Text | Print | Product List | Glossary On
Versions: 1 2 3 4 5 6 7 8 9 10 11 12 13 14 15 16 17 18 19 20 21 22 23 24 25 26 27 28
000
ASUS45 KBOI 222310
RWRID
WEATHER ROUNDUP FOR IDAHO
NATIONAL WEATHER SERVICE BOISE ID
500 PM MDT TUE APR 22 2014

NOTE: "FAIR" INDICATES FEW OR NO CLOUDS BELOW 12000 FEET
WITH NO SIGNIFICANT WEATHER AND/OR OBSTRUCTIONS TO VISIBILITY

IDZ012-014-230000-
SOUTHWEST IDAHO


CITY           SKY/WX    TMP DP  RH WIND       PRES   REMARKS
BOISE          LGT RAIN  48  42  80 N13       29.73S
CALDWELL       CLOUDY    50  37  62 N14       29.77R
MOUNTAIN HOME  CLOUDY    49  47  94 N14       29.72S
$$

IDZ016-017-230000-
SOUTHCENTRAL IDAHO


CITY           SKY/WX    TMP DP  RH WIND       PRES   REMARKS
BURLEY         LGT RAIN  41  37  86 SW20      29.73S
JEROME         LGT RAIN  42  39  89 SW18G28   29.74R
TWIN FALLS     LGT RAIN  43  37  79 SW17G25   29.75R
$$

IDZ019>023-230000-
SOUTHEAST IDAHO


CITY           SKY/WX    TMP DP  RH WIND       PRES   REMARKS
IDAHO FALLS    LGT RAIN  50  38  63 SW18G31   29.63R
POCATELLO      RAIN      42  39  89 SW28G37   29.71R FOG
REXBURG        PTSUNNY   57  35  43 SW18G32   29.56R
$$

IDZ006-010-011-018-031-032-230000-
CENTRAL IDAHO MOUNTAINS


CITY           SKY/WX    TMP DP  RH WIND       PRES   REMARKS
MCCALL         LGT SNOW  33  31  92 E3        29.71S FOG
HAILEY         CLOUDY    45  32  61 NW9       29.68F
STANLEY          N/A     34  32  92 SE3       29.70S
SALMON         CLOUDY    46  37  71 NE9       29.63R
CHALLIS        LGT RAIN  46  36  68 SE8       29.63R
$$

IDZ002-004-006-007-026-230000-
NORTHERN IDAHO


CITY           SKY/WX    TMP DP  RH WIND       PRES   REMARKS
LEWISTON       CLOUDY    51  35  54 NW12      29.78R
LOWELL           N/A     47  45  93 CALM      29.80R
COEUR D`ALENE  CLOUDY    48  48 100 SW13      29.73R
MULLAN PASS    SNOW      31  31 100 NW7       29.70R VSB 1/2 WCI  24
$$



USA.gov is the U.S. government's official web portal to all federal, state and local government web resources and services.